Home > Weather > Raleigh > Past weeks

Flag for USA Past Weather in Raleigh, North Carolina, USA — Yesterday and Last 2 Weeks

Now
76 °F

Passing clouds.


Feels Like: 76 °F
Forecast: 74 / 96 °F
Wind: 6 mph from Southwest

Location: Raleigh-Durham International Airport

Current Time: Jul 24, 2016 at 2:56:08 AM

Latest Report: Jul 24, 2016 at 1:51 AM


Visibility: 10 mi

Pressure: 29.99 "Hg

Humidity: 91%

Dew Point: 73 °F

Location of RaleighLocation

Past Weather in Raleigh — Graph

°F

Raleigh Temperature Yesterday

Maximum temperature yesterday: 94 °F (at 3:51 PM)
Minimum temperature yesterday: 73 °F (at 1:51 AM)
Average temperature yesterday: 83 °F

High & Low Weather Summary for the Past Weeks

 TemperatureHumidityPressure
High95 °F (Jul 14, 1:51 PM)97% (Jul 9, 2:51 AM)30.23 "Hg (Jul 9, 2:51 AM)
Low69 °F (Jul 9, 5:51 AM)43% (Jul 21, 3:51 PM)29.86 "Hg (Jul 9, 5:51 PM)
Average81 °F74%30.06 "Hg
* Reported Jul 9 1:51 AM — Jul 24 1:51 AM, Raleigh, Weather by CustomWeather, © 2016

Note: Actual official high and low records may vary slightly from our data, if they occured in-between our weather recording intervals... More about our weather records

Advertising

Raleigh Weather History for the Previous 24 Hours

Scroll right to see more
 ConditionsComfort  
Time TempWeatherWind HumidityBarometerVisibility
1:51 AM
Sun, Jul 24
76 °FPassing clouds.6 mph91%29.99 "Hg10 mi
12:51 AM78 °FPassing clouds.3 mph82%29.98 "Hg10 mi
11:51 PM
Sat, Jul 23
80 °FPassing clouds.8 mph76%29.98 "Hg10 mi
10:51 PM80 °FPassing clouds.6 mph79%29.97 "Hg10 mi
9:51 PM82 °FPassing clouds.9 mph77%29.96 "Hg10 mi
8:51 PM86 °FPassing clouds.5 mph70%29.95 "Hg10 mi
7:51 PM88 °FPassing clouds.No wind61%29.93 "Hg10 mi
6:51 PM92 °FPassing clouds.7 mph56%29.93 "Hg10 mi
5:51 PM89 °FPassing clouds.5 mph63%29.93 "Hg10 mi
4:51 PM93 °FScattered clouds.7 mph54%29.94 "Hg10 mi
3:51 PM94 °FScattered clouds.10 mph51%29.94 "Hg10 mi
2:51 PM91 °FScattered clouds.7 mph54%29.95 "Hg10 mi
1:51 PM91 °FScattered clouds.6 mph52%29.97 "Hg10 mi
12:51 PM90 °FScattered clouds.5 mph57%29.99 "Hg10 mi
11:51 AM89 °FPassing clouds.3 mph63%29.99 "Hg10 mi
10:51 AM87 °FPassing clouds.No wind65%29.99 "Hg10 mi
9:51 AM84 °FPassing clouds.No wind70%29.98 "Hg10 mi
8:51 AM80 °FPassing clouds.No wind76%29.98 "Hg10 mi
7:51 AM77 °FPassing clouds.5 mph85%29.98 "Hg10 mi
6:51 AM73 °FPassing clouds.No wind94%29.98 "Hg10 mi
5:51 AM73 °FPassing clouds.3 mph90%29.97 "Hg9 mi
4:51 AM73 °FPassing clouds.3 mph90%29.97 "Hg10 mi
3:51 AM74 °FPassing clouds.6 mph88%29.98 "Hg10 mi
2:51 AM73 °FPassing clouds.3 mph90%29.99 "Hg10 mi
Weather by CustomWeather, © 2016

See weather overviewHow to use our weather pages